User: anonymous   Login
Location: Guilderland
(42.7045°N, 73.9115°W)
Time: 20:34:28
(UTC+00:00)
Language:

SL-8 Rocket - Orbit

View from above orbital plane
View from above orbital plane
View from above satellite
View from above satellite

Ground track
Ground track

The orbit data is extracted from the following two-line orbital elements,

1 21088U 91006B   20088.23946987 +.00000033 +00000-0 +17716-4 0  9993
2 21088 082.9456 345.6113 0022705 002.1032 109.3624 13.77144370465032
Epoch (UTC): 28 March 2020 05:44:50
Eccentricity: 0.0022705
inclination: 82.9456°
perigee height: 957 km
apogee height: 991 km
right ascension of ascending node: 345.6113°
argument of perigee: 2.1032°
revolutions per day: 13.77144370
mean anomaly at epoch: 109.3624°
orbit number at epoch: 46503

The dashed part of the orbit path shows where the satellite is in the earth's shadow,  

DLR